| time (UTC) | temp C | wind direction | speed KPH | gust KPH | rain 1hr cm | rain 24hr cm | rain mn cm | humidity % | barometer mb |
| 20260504120141 | -17 | 0.0 | 0.0 | 0.00 | 0.00 | 0.00 | |||
| 20260504110516 | -17 | 0.0 | 0.0 | 0.00 | 0.00 | 0.00 | |||
| 20260504100521 | -17 | 0.0 | 0.0 | 0.00 | 0.00 | 0.00 | |||
| 20260504081016 | 8 | 225 | 17.7 | 25.7 | 0.00 | 0.00 | 0.00 | 55 | 1014.1 |
| 20260504050015 | 10 | 248 | 24.1 | 29.0 | 0.00 | 0.00 | 0.00 | 51 | 1014.3 |
| 20260504045015 | 10 | 248 | 25.7 | 33.8 | 0.00 | 0.00 | 0.00 | 50 | 1014.2 |
| 20260504044015 | 10 | 248 | 22.5 | 29.0 | 0.00 | 0.00 | 0.00 | 50 | 1014.2 |
| 20260504043016 | 10 | 248 | 20.9 | 29.0 | 0.00 | 0.00 | 0.00 | 50 | 1014.3 |
| 20260504042016 | 10 | 248 | 22.5 | 30.6 | 0.00 | 0.00 | 0.00 | 49 | 1014.2 |
| 20260504041035 | 10 | 225 | 20.9 | 27.4 | 0.00 | 0.00 | 0.00 | 50 | 1014.1 |
| 20260504040035 | 10 | 248 | 20.9 | 30.6 | 0.00 | 0.00 | 0.00 | 50 | 1014.0 |
| 20260504035017 | 10 | 248 | 22.5 | 29.0 | 0.00 | 0.00 | 0.00 | 49 | 1014.0 |
| 20260504034017 | 10 | 248 | 19.3 | 25.7 | 0.00 | 0.00 | 0.00 | 48 | 1013.9 |
| 20260504033037 | 10 | 248 | 20.9 | 29.0 | 0.00 | 0.00 | 0.00 | 48 | 1013.8 |
| 20260504032017 | 11 | 248 | 24.1 | 32.2 | 0.00 | 0.00 | 0.00 | 47 | 1013.7 |
| 20260504031017 | 11 | 248 | 24.1 | 30.6 | 0.00 | 0.00 | 0.00 | 47 | 1013.7 |
| 20260504030017 | 11 | 248 | 24.1 | 30.6 | 0.00 | 0.00 | 0.00 | 46 | 1013.7 |
| 20260504025037 | 11 | 248 | 24.1 | 27.4 | 0.00 | 0.00 | 0.00 | 45 | 1013.7 |
| 20260504024017 | 11 | 248 | 24.1 | 30.6 | 0.00 | 0.00 | 0.00 | 44 | 1013.8 |
| 20260504023017 | 11 | 248 | 25.7 | 32.2 | 0.00 | 0.00 | 0.00 | 44 | 1013.6 |
| 20260504022017 | 11 | 248 | 25.7 | 30.6 | 0.00 | 0.00 | 0.00 | 45 | 1013.8 |
| 20260504021017 | 11 | 270 | 25.7 | 30.6 | 0.00 | 0.00 | 0.00 | 45 | 1013.8 |
| 20260504020017 | 11 | 270 | 22.5 | 27.4 | 0.00 | 0.00 | 0.00 | 45 | 1013.8 |
| 20260504015017 | 11 | 270 | 25.7 | 30.6 | 0.00 | 0.00 | 0.00 | 44 | 1013.7 |
| 20260504014022 | 11 | 270 | 27.4 | 33.8 | 0.00 | 0.00 | 0.00 | 44 | 1013.6 |
| 20260504013017 | 11 | 270 | 27.4 | 33.8 | 0.00 | 0.00 | 0.00 | 44 | 1013.6 |
| 20260504012017 | 11 | 270 | 25.7 | 30.6 | 0.00 | 0.00 | 0.00 | 44 | 1013.6 |
| 20260504011017 | 11 | 270 | 27.4 | 33.8 | 0.00 | 0.00 | 0.00 | 44 | 1013.4 |
| 20260504010017 | 11 | 270 | 32.2 | 40.2 | 0.00 | 0.00 | 0.00 | 43 | 1013.2 |
| 20260504005017 | 11 | 270 | 30.6 | 40.2 | 0.00 | 0.00 | 0.00 | 44 | 1013.1 |
| 20260504004017 | 12 | 270 | 30.6 | 38.6 | 0.00 | 0.00 | 0.00 | 43 | 1013.1 |
| 20260504003024 | 12 | 270 | 29.0 | 37.0 | 0.00 | 0.00 | 0.00 | 44 | 1013.0 |
| 20260504002042 | 12 | 270 | 27.4 | 32.2 | 0.00 | 0.00 | 0.00 | 43 | 1012.9 |
| 20260504001017 | 12 | 270 | 27.4 | 37.0 | 0.00 | 0.00 | 0.00 | 43 | 1012.7 |
| 20260504000024 | 12 | 270 | 29.0 | 37.0 | 0.00 | 0.00 | 0.00 | 43 | 1012.6 |
| 20260503235017 | 12 | 270 | 32.2 | 43.5 | 0.00 | 0.00 | 0.00 | 42 | 1012.5 |
| 20260503234017 | 12 | 270 | 32.2 | 40.2 | 0.00 | 0.00 | 0.00 | 42 | 1012.5 |
| 20260503233025 | 12 | 270 | 30.6 | 38.6 | 0.00 | 0.00 | 0.00 | 41 | 1012.5 |
| 20260503232017 | 12 | 270 | 35.4 | 46.7 | 0.00 | 0.00 | 0.00 | 41 | 1012.5 |
| 20260503231017 | 12 | 270 | 27.4 | 43.5 | 0.00 | 0.00 | 0.00 | 40 | 1012.5 |
| 20260503230042 | 12 | 293 | 33.8 | 49.9 | 0.00 | 0.00 | 0.00 | 41 | 1012.3 |
| 20260503225017 | 12 | 293 | 37.0 | 53.1 | 0.00 | 0.00 | 0.00 | 40 | 1012.2 |
| 20260503224022 | 12 | 270 | 32.2 | 41.8 | 0.00 | 0.00 | 0.00 | 40 | 1012.3 |
| 20260503223059 | 12 | 270 | 33.8 | 46.7 | 0.00 | 0.00 | 0.00 | 39 | 1012.2 |
| 20260503222017 | 13 | 270 | 32.2 | 45.1 | 0.00 | 0.00 | 0.00 | 40 | 1012.1 |
| 20260503221016 | 12 | 270 | 33.8 | 43.5 | 0.00 | 0.00 | 0.00 | 40 | 1012.2 |
| 20260503220036 | 13 | 293 | 35.4 | 49.9 | 0.00 | 0.00 | 0.00 | 39 | 1012.3 |
| 20260503215042 | 12 | 270 | 37.0 | 54.7 | 0.00 | 0.00 | 0.00 | 39 | 1012.2 |
| 20260503214016 | 12 | 293 | 35.4 | 51.5 | 0.00 | 0.00 | 0.00 | 40 | 1012.2 |
| 20260503213023 | 12 | 270 | 22.5 | 43.5 | 0.00 | 0.00 | 0.00 | 40 | 1012.1 |
| 20260503212017 | 12 | 293 | 32.2 | 41.8 | 0.00 | 0.00 | 0.00 | 40 | 1012.2 |
| 20260503211017 | 12 | 293 | 30.6 | 38.6 | 0.00 | 0.00 | 0.00 | 39 | 1012.2 |
| 20260503210017 | 12 | 270 | 35.4 | 48.3 | 0.00 | 0.00 | 0.00 | 39 | 1012.1 |
| 20260503205017 | 12 | 293 | 35.4 | 51.5 | 0.00 | 0.00 | 0.00 | 39 | 1012.1 |
| 20260503204037 | 12 | 293 | 33.8 | 43.5 | 0.00 | 0.00 | 0.00 | 39 | 1012.2 |
| 20260503203024 | 11 | 293 | 43.5 | 57.9 | 0.00 | 0.00 | 0.00 | 38 | 1012.1 |
| 20260503202016 | 11 | 293 | 37.0 | 51.5 | 0.00 | 0.00 | 0.00 | 38 | 1012.2 |
| 20260503201017 | 12 | 293 | 37.0 | 48.3 | 0.00 | 0.00 | 0.00 | 37 | 1012.3 |
| 20260503200058 | 11 | 293 | 32.2 | 48.3 | 0.00 | 0.00 | 0.00 | 37 | 1012.4 |
| 20260503195016 | 11 | 270 | 37.0 | 51.5 | 0.00 | 0.00 | 0.00 | 38 | 1012.3 |
| 20260503194016 | 11 | 293 | 38.6 | 51.5 | 0.00 | 0.00 | 0.00 | 40 | 1012.5 |
| 20260503193037 | 11 | 293 | 37.0 | 49.9 | 0.00 | 0.00 | 0.00 | 40 | 1012.8 |
| 20260503192017 | 10 | 293 | 48.3 | 62.8 | 0.00 | 0.00 | 0.00 | 40 | 1012.6 |
| 20260503191027 | 10 | 293 | 43.5 | 57.9 | 0.00 | 0.00 | 0.00 | 40 | 1013.1 |
| 20260503190018 | 10 | 293 | 38.6 | 53.1 | 0.00 | 0.00 | 0.00 | 41 | 1012.8 |
| 20260503185016 | 10 | 293 | 43.5 | 62.8 | 0.00 | 0.00 | 0.00 | 42 | 1013.2 |
| 20260503184017 | 10 | 293 | 51.5 | 74.0 | 0.00 | 0.00 | 0.00 | 42 | 1013.2 |
| 20260503183023 | 10 | 270 | 40.2 | 56.3 | 0.00 | 0.00 | 0.00 | 43 | 1013.3 |
| 20260503182016 | 9 | 293 | 40.2 | 54.7 | 0.00 | 0.00 | 0.00 | 42 | 1013.3 |
| 20260503181016 | 10 | 293 | 40.2 | 53.1 | 0.00 | 0.00 | 0.00 | 44 | 1013.3 |
| 20260503180024 | 10 | 293 | 35.4 | 53.1 | 0.00 | 0.00 | 0.00 | 43 | 1013.5 |
| 20260503175017 | 9 | 293 | 30.6 | 48.3 | 0.00 | 0.00 | 0.00 | 43 | 1013.5 |
| 20260503174016 | 9 | 293 | 30.6 | 51.5 | 0.00 | 0.00 | 0.00 | 44 | 1013.7 |
| 20260503173018 | 8 | 293 | 37.0 | 51.5 | 0.00 | 0.00 | 0.00 | 44 | 1013.5 |
| 20260503172016 | 8 | 293 | 46.7 | 64.4 | 0.00 | 0.00 | 0.00 | 44 | 1013.5 |
| 20260503171016 | 8 | 293 | 45.1 | 59.5 | 0.00 | 0.00 | 0.00 | 43 | 1013.4 |